GSAT0103 (PRN E19)

Last updated on Tue Apr 09 2024 01:03:07 GMT+0100 (British Summer Time)

1 38857U 12055A 24099.37236097 .00000059 00000+0 00000+0 0 9997 2 38857 55.3738 123.5224 0005946 272.7857 87.2168 1.70473506 71378
UTC large
Height (km)
Speed (km/s)
/
Latitude / Longitude
Inclination (degrees)
Orbital Period (minutes)
Azimuth
Elevation
Range (km)
Doppler Factor

Next 0 passes for location: London (51.5072 / 0.1276)

Sorry there are no passes over London.